Location: Lake Sonoma
(38.7200°N, 123.0564°W)
Time: 11:03:49
(UTC-08:00)

ISS - Visible Passes

Search period start: 21 November 2014 00:00
Search period end: 01 December 2014 00:00
Orbit: 408 x 417 km, 51.6° (Epoch: 21 November)

Date Brightness Start Highest point End Pass type
(mag) Time Alt. Az. Time Alt. Az. Time Alt. Az.
22 Nov -1.1 06:13:32 10° NNW 06:15:53 18° NNE 06:18:13 10° ENE visible
23 Nov -0.8 05:25:16 13° N 05:25:57 13° NNE 05:27:41 10° NE visible
24 Nov -2.0 06:10:26 11° NW 06:13:21 33° NNE 06:16:23 10° E visible
25 Nov -1.4 05:22:46 21° N 05:23:24 22° NNE 05:26:04 10° E visible
26 Nov -0.1 04:35:06 12° ENE 04:35:06 12° ENE 04:35:30 10° ENE visible
26 Nov -3.3 06:07:56 17° NW 06:10:23 88° NE 06:13:41 10° SE visible
27 Nov -2.7 05:20:16 46° NNE 05:20:27 47° NE 05:23:39 10° ESE visible
28 Nov -0.1 04:32:37 14° E 04:32:37 14° E 04:33:19 10° E visible
28 Nov -2.2 06:05:27 20° W 06:07:01 31° SW 06:09:57 10° SSE visible
29 Nov -2.5 05:17:49 45° SSE 05:17:49 45° SSE 05:20:19 10° SE visible
30 Nov 0.1 04:30:13 11° ESE 04:30:13 11° ESE 04:30:18 10° ESE visible
30 Nov -1.0 06:03:03 11° SW 06:03:13 11° SW 06:04:12 10° SW visible
